Simultaneous Nadir Overpasses (SNOs) Predictions

Prediction of SNOs near US between AQUA and NPP Satellite Orbit:

Table of predicted SNOs near US for the next 10.0 days since TLE Epoch: 9/13/2014
Index Date (AQUA) Time (AQUA) AQUA Lat,Lon Date (NPP) Time (NPP) NPP Lat,Lon Distance(km) Time Diff (sec)
1 09/13/2014 07:45:52 20.04, -89.57 09/13/2014 07:43:44 19.99, -89.40 17.86 128
2 09/13/2014 09:17:06 47.56,-106.35 09/13/2014 09:17:21 47.55,-106.37 1.35 15
3 09/15/2014 20:14:33 49.99,-109.58 09/15/2014 20:06:57 50.10,-108.95 47.08 456
4 09/18/2014 17:26:58 47.65, -66.90 09/18/2014 17:27:37 47.43, -68.15 96.90 39
5 09/18/2014 19:03:20 38.65, -88.52 09/18/2014 19:06:30 38.34, -90.23 152.48 190
6 09/18/2014 20:39:43 29.65,-110.72 09/18/2014 20:45:23 29.19,-112.90 218.05 340
7 09/21/2014 06:56:15
